User: anonymous   Login
Location: Meriden
(44.0740°N, 93.3870°W)
Time: 05:55:25
(UTC-06:00)
Language:

AO-27 - Orbit

View from above orbital plane
View from above orbital plane
View from above satellite
View from above satellite

Ground track
Ground track

The orbit data is extracted from the following two-line orbital elements,

1 22825U 93061C   14327.12218933  .00000188  00000-0  90393-4 0  8257
2 22825 098.6827 272.4961 0008477 184.8588 242.1712 14.29786456103498
Epoch (UTC): 23 November 2014 02:55:57
Eccentricity: 0.0008477
inclination: 98.6827°
perigee height: 786 km
apogee height: 798 km
right ascension of ascending node: 272.4961°
argument of perigee: 184.8588°
revolutions per day: 14.29786456
mean anomaly at epoch: 242.1712°
orbit number at epoch: 10349

The dashed part of the orbit path shows where the satellite is in the earth's shadow,  

DLR